Total_Precipitation_Accumulation
1.70 1.77 1.71 1.69 1.63 1.64 1.69 1.68 1.65 1.63 1.57 1.58 1.65 1.68 1.66 1.71 1.80 1.88 1.77 1.81 1.80 1.82 1.82 1.87 1.91 2.04 2.03 1.95 2.06 2.10 2.18 2.30 2.08 1.68 1.70 1.83 1.84 1.65 1.61 1.53 1.50 1.51 1.46
1.49 1.48 1.46 1.52 1.52 1.46 1.45 1.50 1.56 1.49 1.43 1.49 1.54 1.51 1.45 1.57 1.73 1.76 1.69 1.76 1.80 1.77 1.86 2.01 1.93 2.01 2.07 2.12 2.28 2.18 2.25 2.54 2.45 2.10 2.03 2.13 2.03 1.90 1.84 1.73 1.48 1.39 1.38
1.25 1.23 1.26 1.29 1.30 1.30 1.32 1.39 1.47 1.50 1.50 1.48 1.45 1.38 1.38 1.46 1.54 1.57 1.66 1.78 1.83 1.86 1.96 2.05 2.08 2.27 2.17 2.21 2.26 2.21 2.26 2.50 2.69 2.44 2.24 2.34 2.29 2.08 2.04 1.83 1.65 1.65 1.43
1.17 1.24 1.34 1.38 1.41 1.44 1.42 1.49 1.59 1.65 1.60 1.61 1.59 1.61 1.62 1.59 1.60 1.66 1.75 1.82 1.84 1.89 2.04 2.09 2.13 2.20 2.27 2.42 2.40 2.47 2.63 2.80 2.93 2.77 2.62 2.69 2.71 2.60 2.40 2.03 1.92 1.80 1.65
1.34 1.44 1.63 1.78 1.81 1.71 1.69 1.78 1.86 1.90 1.84 1.97 1.94 1.91 1.96 1.92 1.72 1.85 1.93 1.88 1.98 1.91 2.00 2.06 2.04 2.16 2.24 2.36 2.28 2.47 2.80 2.98 3.10 3.12 3.04 3.18 3.11 3.01 2.66 2.29 2.19 2.07 1.89
1.21 1.37 1.59 1.81 1.93 1.92 1.96 2.07 2.11 2.07 2.17 2.25 2.17 2.13 2.11 1.86 1.96 2.03 2.02 2.11 2.14 2.09 2.11 2.14 2.11 2.10 2.03 2.07 2.13 2.26 2.47 2.66 2.87 3.07 3.14 3.22 3.24 3.15 2.97 2.69 2.34 2.08 1.89
1.42 1.61 1.73 1.91 2.06 2.08 2.04 2.07 2.12 2.15 2.14 2.18 2.18 2.20 2.07 2.01 2.01 1.86 1.88 1.93 2.06 2.12 2.16 2.18 2.00 1.86 1.92 1.82 1.96 2.03 2.00 2.05 2.18 2.46 2.65 2.70 2.95 3.08 2.99 2.62 2.31 2.04 1.82
1.38 1.55 1.67 1.87 2.01 2.09 2.18 2.22 2.30 2.37 2.38 2.37 2.30 2.27 2.23 2.09 1.98 1.82 1.89 1.80 1.86 1.91 1.96 2.00 1.97 1.86 1.86 1.96 1.96 1.83 1.65 1.61 1.73 1.74 1.80 2.05 2.37 2.73 2.85 2.71 2.66 2.36 2.02
1.59 1.76 1.90 2.00 2.14 2.21 2.25 2.38 2.49 2.57 2.55 2.55 2.51 2.49 2.48 2.46 2.39 2.10 2.02 1.86 1.90 1.90 1.91 1.91 1.88 1.75 1.90 1.85 1.78 1.76 1.65 1.53 1.54 1.57 1.62 1.82 2.11 2.38 2.63 2.67 2.58 2.47 2.17
1.97 2.03 2.11 2.23 2.31 2.31 2.33 2.42 2.44 2.45 2.46 2.49 2.44 2.51 2.48 2.47 2.54 2.27 2.07 1.82 1.84 1.88 1.97 1.98 2.00 1.84 1.91 1.85 1.79 1.80 1.68 1.58 1.58 1.55 1.57 1.62 1.69 2.00 2.34 2.34 2.32 2.37 2.21
2.00 2.08 2.17 2.27 2.48 2.61 2.64 2.50 2.35 2.35 2.43 2.53 2.53 2.59 2.59 2.52 2.47 2.14 1.99 1.91 1.96 2.00 1.96 1.90 1.91 1.92 1.72 1.60 1.53 1.52 1.58 1.63 1.64 1.55 1.48 1.48 1.54 1.66 1.88 1.98 2.06 2.09 2.03
1.96 2.08 2.19 2.26 2.27 2.32 2.58 2.65 2.60 2.51 2.44 2.47 2.55 2.50 2.43 2.37 2.25 1.95 1.71 1.69 1.76 1.78 1.77 1.73 1.71 1.67 1.47 1.33 1.17 1.13 1.21 1.22 1.27 1.35 1.34 1.30 1.33 1.40 1.58 1.85 2.01 2.04 1.96
2.02 2.18 2.33 2.39 2.44 2.41 2.44 2.53 2.50 2.42 2.28 2.14 2.20 2.25 2.25 2.26 2.13 1.83 1.53 1.43 1.45 1.39 1.46 1.66 1.64 1.50 1.37 1.28 1.22 1.14 1.05 0.97 1.06 1.15 1.11 1.11 1.17 1.28 1.45 1.75 2.00 2.19 2.11
2.13 2.18 2.24 2.29 2.32 2.36 2.49 2.42 2.35 2.35 2.28 2.10 2.11 2.16 2.18 2.16 2.02 1.77 1.59 1.49 1.45 1.38 1.40 1.56 1.63 1.61 1.52 1.41 1.31 1.15 0.98 0.96 0.99 1.05 1.12 1.16 1.27 1.36 1.44 1.53 1.78 2.00 2.10
1.95 1.90 1.98 2.08 2.13 2.15 2.31 2.38 2.21 2.11 2.16 2.06 2.12 2.28 2.22 2.02 1.86 1.70 1.51 1.47 1.47 1.51 1.52 1.61 1.71 1.74 1.72 1.61 1.45 1.30 1.19 1.15 1.12 1.11 1.22 1.27 1.31 1.34 1.33 1.37 1.56 1.72 1.72
1.98 1.95 1.94 1.98 2.04 2.08 2.07 2.12 2.08 1.86 1.82 1.74 1.78 1.86 1.89 1.78 1.66 1.58 1.48 1.44 1.39 1.40 1.40 1.54 1.80 1.87 1.87 1.84 1.73 1.56 1.42 1.33 1.28 1.28 1.30 1.31 1.32 1.37 1.42 1.46 1.55 1.67 1.65
2.10 2.18 2.12 1.95 1.87 1.87 1.85 1.82 1.82 1.71 1.49 1.40 1.38 1.36 1.32 1.31 1.32 1.39 1.43 1.37 1.30 1.20 1.14 1.32 1.62 1.83 1.91 1.92 1.84 1.65 1.47 1.44 1.49 1.46 1.41 1.38 1.37 1.40 1.50 1.55 1.61 1.70 1.74
1.80 1.87 1.83 1.73 1.67 1.62 1.58 1.52 1.46 1.52 1.48 1.35 1.28 1.23 1.19 1.15 1.18 1.36 1.49 1.32 1.20 1.15 1.08 1.22 1.48 1.76 1.89 1.95 1.92 1.84 1.70 1.65 1.65 1.61 1.56 1.50 1.47 1.48 1.49 1.50 1.54 1.58 1.62
1.61 1.63 1.59 1.59 1.64 1.65 1.69 1.65 1.54 1.51 1.58 1.59 1.49 1.28 1.24 1.21 1.23 1.47 1.57 1.25 1.16 1.22 1.24 1.28 1.39 1.60 1.80 1.92 1.93 1.90 1.83 1.78 1.79 1.80 1.74 1.69 1.64 1.66 1.60 1.52 1.54 1.61 1.63
1.55 1.68 1.64 1.53 1.54 1.67 1.74 1.70 1.71 1.78 1.78 1.86 1.84 1.56 1.37 1.28 1.21 1.45 1.56 1.40 1.36 1.37 1.36 1.37 1.41 1.55 1.75 1.92 1.97 1.92 1.93 1.87 1.86 1.85 1.80 1.75 1.70 1.71 1.70 1.66 1.67 1.70 1.64
1.48 1.53 1.58 1.51 1.51 1.59 1.66 1.69 1.69 1.74 1.85 1.89 1.83 1.62 1.46 1.29 1.37 1.59 1.76 1.64 1.53 1.53 1.53 1.51 1.53 1.63 1.74 1.83 1.84 1.78 1.78 1.84 1.82 1.79 1.76 1.74 1.69 1.64 1.64 1.69 1.70 1.73 1.70
1.47 1.47 1.49 1.49 1.51 1.52 1.54 1.64 1.73 1.80 1.86 1.91 1.79 1.64 1.59 1.47 1.52 1.66 1.73 1.68 1.60 1.56 1.55 1.55 1.60 1.68 1.75 1.78 1.76 1.74 1.73 1.75 1.75 1.73 1.76 1.76 1.73 1.69 1.71 1.71 1.71 1.74 1.76
1.33 1.37 1.44 1.45 1.43 1.40 1.38 1.39 1.45 1.56 1.68 1.72 1.62 1.57 1.56 1.60 1.59 1.63 1.70 1.69 1.64 1.60 1.53 1.53 1.55 1.55 1.56 1.59 1.57 1.59 1.61 1.59 1.60 1.65 1.75 1.79 1.80 1.77 1.73 1.67 1.63 1.67 1.72
1.01 1.03 1.05 1.09 1.11 1.16 1.21 1.24 1.25 1.29 1.41 1.47 1.40 1.42 1.44 1.46 1.44 1.46 1.51 1.53 1.53 1.53 1.49 1.44 1.44 1.44 1.40 1.37 1.39 1.42 1.39 1.41 1.42 1.48 1.57 1.68 1.72 1.77 1.76 1.73 1.73 1.73 1.76
0.99 0.97 0.93 0.95 0.99 1.04 1.10 1.14 1.20 1.27 1.31 1.33 1.33 1.32 1.32 1.32 1.33 1.37 1.34 1.33 1.33 1.31 1.25 1.24 1.28 1.29 1.31 1.23 1.16 1.16 1.22 1.21 1.21 1.27 1.31 1.43 1.53 1.63 1.66 1.67 1.72 1.79 1.79
0.93 0.97 0.96 0.98 1.01 1.06 1.12 1.16 1.18 1.17 1.19 1.18 1.18 1.22 1.27 1.25 1.22 1.22 1.17 1.15 1.18 1.17 1.13 1.11 1.12 1.15 1.15 1.10 1.09 1.13 1.09 0.98 0.99 1.13 1.14 1.21 1.35 1.44 1.50 1.54 1.54 1.62 1.68